Location: Lawrence Hall of Science
(37.8785°N, 122.2415°W)
Time: 08:59:49
(UTC-07:00)

ARGOS - Visible Passes

Search period start: 25 July 2016 00:00
Search period end: 04 August 2016 00:00
Orbit: 819 x 836 km, 98.7° (Epoch: 25 July)

Date Brightness Start Highest point End Pass type
(mag) Time Alt. Az. Time Alt. Az. Time Alt. Az.
25 Jul 3.1 22:24:10 39° SSE 22:26:13 73° ENE 22:31:34 10° N visible
26 Jul 5.5 00:05:41 11° WSW 00:06:57 12° W 00:09:05 10° WNW visible
26 Jul 3.5 22:05:27 30° SE 22:07:45 49° ENE 22:12:53 10° N visible
26 Jul 5.1 23:46:59 18° WSW 23:48:12 19° W 23:51:57 10° NW visible
27 Jul 4.0 21:46:45 22° ESE 21:49:19 33° ENE 21:54:04 10° N visible
27 Jul 4.5 23:28:16 26° WSW 23:29:31 28° W 23:34:07 10° NW visible
28 Jul 4.5 21:28:02 15° ESE 21:30:56 23° ENE 21:35:04 10° NNE visible
28 Jul 4.0 23:09:33 36° SW 23:10:52 42° W 23:15:58 10° NNW visible
29 Jul 4.9 21:09:31 10° E 21:12:38 16° ENE 21:15:45 10° NNE visible
29 Jul 3.3 22:50:50 46° SSW 22:52:17 64° WSW 22:57:37 10° NNW visible
30 Jul 5.2 20:53:19 10° ENE 20:54:22 11° ENE 20:55:25 10° NE visible
30 Jul 3.0 22:32:08 47° SSE 22:33:45 86° ENE 22:39:08 10° NNW visible
31 Jul 3.3 22:13:25 38° SE 22:15:15 58° ENE 22:20:30 10° N visible
31 Jul 5.3 23:54:57 15° WSW 23:55:50 16° W 23:59:04 10° NW visible
01 Aug 3.8 21:54:44 28° ESE 21:56:49 39° ENE 22:01:45 10° N visible
01 Aug 4.8 23:36:14 23° WSW 23:37:07 24° W 23:41:25 10° NW visible
02 Aug 4.3 21:36:02 19° ESE 21:38:25 27° ENE 21:42:50 10° N visible
02 Aug 4.2 23:17:32 33° WSW 23:18:27 36° W 23:23:22 10° NNW visible
03 Aug 4.7 21:17:19 13° E 21:20:05 19° ENE 21:23:40 10° NNE visible
03 Aug 3.6 22:58:50 47° SW 22:59:51 54° W 23:05:06 10° NNW visible
